EZY24YG EGAA-EGNM

Flight info

Callsign EZY24YG
Flight time 0h 45m
Altitude 25000
Route LISBO L603 PEPOD Q38 GIGTO UQ4 WAL DCT POL
Aircraft A320/M-SDE3FGHIRWY/LB1

Departure

Time 2026-05-04 23:10
Airport Belfast International Airport (EGAA)

Arrival

Time 2026-05-04 23:55
Airport Leeds Bradford Airport (EGNM)
Time Latitude Longitude Altitude Speed Heading
2026-05-04 22:47 54.66144 -6.21385 272 ft 0 kts 245°
2026-05-04 22:58 54.66145 -6.21384 272 ft 2 kts 245°
2026-05-04 22:59 54.66156 -6.21346 277 ft 4 kts 238°
2026-05-04 22:59 54.66172 -6.21312 272 ft 4 kts 201°
2026-05-04 22:59 54.66186 -6.21310 277 ft 0 kts 155°
2026-05-04 23:05 54.66182 -6.21306 272 ft 3 kts 155°
2026-05-04 23:05 54.66145 -6.21276 273 ft 9 kts 155°
2026-05-04 23:05 54.66081 -6.21225 272 ft 10 kts 156°
2026-05-04 23:05 54.66027 -6.21247 273 ft 8 kts 228°
2026-05-04 23:06 54.66000 -6.21332 272 ft 10 kts 243°
2026-05-04 23:06 54.65959 -6.21478 272 ft 17 kts 246°
2026-05-04 23:06 54.65903 -6.21690 275 ft 22 kts 244°
2026-05-04 23:06 54.65831 -6.21954 272 ft 26 kts 244°
2026-05-04 23:07 54.65769 -6.22252 272 ft 27 kts 262°
2026-05-04 23:07 54.65747 -6.22589 272 ft 29 kts 264°
2026-05-04 23:07 54.65698 -6.22928 274 ft 30 kts 237°
2026-05-04 23:07 54.65572 -6.23223 272 ft 31 kts 233°
2026-05-04 23:08 54.65402 -6.23405 272 ft 25 kts 183°
2026-05-04 23:08 54.65300 -6.23362 272 ft 4 kts 157°
2026-05-04 23:08 54.65281 -6.23338 274 ft 4 kts 123°
2026-05-04 23:08 54.65287 -6.23295 272 ft 0 kts 66°
2026-05-04 23:09 54.65307 -6.23221 275 ft 26 kts 65°
2026-05-04 23:09 54.65498 -6.22515 274 ft 99 kts 65°
2026-05-04 23:09 54.65869 -6.21134 275 ft 151 kts 65°
2026-05-04 23:10 54.66298 -6.19397 787 ft 153 kts 68°
2026-05-04 23:10 54.66680 -6.17703 1477 ft 150 kts 69°
2026-05-04 23:10 54.67041 -6.15937 1899 ft 167 kts 85°
2026-05-04 23:10 54.66749 -6.13906 2211 ft 189 kts 125°
2026-05-04 23:11 54.65646 -6.12527 2511 ft 210 kts 165°
2026-05-04 23:11 54.64140 -6.12088 2926 ft 230 kts 172°
2026-05-04 23:11 54.62497 -6.11664 3481 ft 249 kts 171°
2026-05-04 23:11 54.60742 -6.11207 3836 ft 258 kts 171°
2026-05-04 23:12 54.58965 -6.10738 3900 ft 259 kts 171°
2026-05-04 23:12 54.57208 -6.10270 3907 ft 258 kts 171°
2026-05-04 23:12 54.55428 -6.09796 3906 ft 258 kts 171°
2026-05-04 23:12 54.53694 -6.09002 3908 ft 258 kts 158°
2026-05-04 23:13 54.52120 -6.07523 3908 ft 258 kts 144°
2026-05-04 23:13 54.50794 -6.05455 3906 ft 258 kts 130°
2026-05-04 23:13 54.49649 -6.03074 3956 ft 260 kts 129°
2026-05-04 23:13 54.48486 -6.00677 4842 ft 261 kts 130°
2026-05-04 23:14 54.47317 -5.98272 5815 ft 263 kts 130°
2026-05-04 23:14 54.46133 -5.95836 6712 ft 267 kts 130°
2026-05-04 23:14 54.45342 -5.94210 7297 ft 269 kts 130°
2026-05-04 23:14 54.44133 -5.91727 8163 ft 273 kts 130°
2026-05-04 23:15 54.42907 -5.89208 9020 ft 276 kts 130°
2026-05-04 23:15 54.41668 -5.86659 9845 ft 280 kts 130°
2026-05-04 23:15 54.40414 -5.84082 10657 ft 283 kts 130°
2026-05-04 23:15 54.39144 -5.81468 11452 ft 287 kts 130°
2026-05-04 23:16 54.37857 -5.78822 12230 ft 290 kts 130°
2026-05-04 23:16 54.36555 -5.76149 12987 ft 293 kts 130°
2026-05-04 23:16 54.35255 -5.73488 13708 ft 297 kts 130°
2026-05-04 23:16 54.33921 -5.70768 14431 ft 300 kts 130°
2026-05-04 23:17 54.32573 -5.68017 15124 ft 303 kts 130°
2026-05-04 23:17 54.31211 -5.65244 15807 ft 306 kts 130°
2026-05-04 23:17 54.29831 -5.62442 16471 ft 309 kts 130°
2026-05-04 23:17 54.28436 -5.59614 17118 ft 312 kts 130°
2026-05-04 23:18 54.27028 -5.56747 17755 ft 315 kts 129°
2026-05-04 23:18 54.25675 -5.53769 18381 ft 318 kts 126°
2026-05-04 23:18 54.24370 -5.50690 18986 ft 321 kts 125°
2026-05-04 23:18 54.23074 -5.47542 19575 ft 324 kts 125°
2026-05-04 23:19 54.21770 -5.44371 20150 ft 327 kts 125°
2026-05-04 23:19 54.20449 -5.41178 20708 ft 330 kts 125°
2026-05-04 23:19 54.19111 -5.37971 21256 ft 333 kts 126°
2026-05-04 23:19 54.17755 -5.34743 21792 ft 336 kts 126°
2026-05-04 23:20 54.16382 -5.31498 22320 ft 338 kts 126°
2026-05-04 23:20 54.14995 -5.28237 22838 ft 341 kts 126°
2026-05-04 23:20 54.13592 -5.24953 23343 ft 344 kts 126°
2026-05-04 23:20 54.12176 -5.21640 23839 ft 346 kts 126°
2026-05-04 23:21 54.10753 -5.18307 24313 ft 349 kts 126°
2026-05-04 23:21 54.09315 -5.14940 24702 ft 356 kts 126°
2026-05-04 23:21 54.07849 -5.11512 24823 ft 369 kts 126°
2026-05-04 23:21 54.06295 -5.07877 24973 ft 381 kts 126°
2026-05-04 23:22 54.04730 -5.04224 25016 ft 394 kts 126°
2026-05-04 23:22 54.03081 -5.00393 25003 ft 408 kts 126°
2026-05-04 23:22 54.01372 -4.96433 25010 ft 421 kts 126°
2026-05-04 23:22 53.99614 -4.92367 25002 ft 432 kts 126°
2026-05-04 23:23 53.97828 -4.88226 25000 ft 436 kts 126°
2026-05-04 23:23 53.96030 -4.84054 25004 ft 437 kts 126°
2026-05-04 23:23 53.94230 -4.79894 24998 ft 437 kts 126°
2026-05-04 23:23 53.92425 -4.75736 25005 ft 437 kts 126°
2026-05-04 23:24 53.90621 -4.71587 25016 ft 437 kts 126°
2026-05-04 23:24 53.88899 -4.67635 25009 ft 437 kts 126°
2026-05-04 23:24 53.87217 -4.63781 25010 ft 437 kts 126°
2026-05-04 23:25 53.85405 -4.59643 25007 ft 437 kts 127°
2026-05-04 23:25 53.83592 -4.55514 25002 ft 437 kts 127°
2026-05-04 23:25 53.81780 -4.51389 25003 ft 437 kts 127°
2026-05-04 23:25 53.79991 -4.47317 25003 ft 437 kts 127°
2026-05-04 23:26 53.78157 -4.43138 24992 ft 437 kts 127°
2026-05-04 23:26 53.76371 -4.39070 24997 ft 437 kts 127°
2026-05-04 23:26 53.74559 -4.34952 24993 ft 437 kts 127°
2026-05-04 23:26 53.72743 -4.30842 24998 ft 437 kts 127°
2026-05-04 23:27 53.70925 -4.26736 24996 ft 436 kts 127°
2026-05-04 23:27 53.69107 -4.22636 24998 ft 436 kts 127°
2026-05-04 23:27 53.67285 -4.18541 24996 ft 436 kts 127°
2026-05-04 23:27 53.65461 -4.14450 24991 ft 436 kts 127°
2026-05-04 23:28 53.63730 -4.10254 24997 ft 436 kts 121°
2026-05-04 23:28 53.62359 -4.05685 24994 ft 436 kts 112°
2026-05-04 23:28 53.61202 -4.00959 24998 ft 437 kts 112°
2026-05-04 23:28 53.60043 -3.96233 24999 ft 437 kts 112°
2026-05-04 23:29 53.58875 -3.91500 24967 ft 437 kts 112°
2026-05-04 23:29 53.57704 -3.86778 24716 ft 437 kts 112°
2026-05-04 23:29 53.56530 -3.82057 24466 ft 438 kts 112°
2026-05-04 23:29 53.55350 -3.77333 24210 ft 438 kts 112°
2026-05-04 23:30 53.54180 -3.72661 23970 ft 438 kts 112°
2026-05-04 23:30 53.53002 -3.67950 23730 ft 436 kts 112°
2026-05-04 23:30 53.51826 -3.63256 23468 ft 435 kts 113°
2026-05-04 23:30 53.50649 -3.58586 23217 ft 433 kts 113°
2026-05-04 23:31 53.49473 -3.53932 22968 ft 432 kts 113°
2026-05-04 23:31 53.48301 -3.49297 22717 ft 430 kts 113°
2026-05-04 23:31 53.47137 -3.44680 22459 ft 429 kts 113°
2026-05-04 23:31 53.45979 -3.40083 22208 ft 427 kts 113°
2026-05-04 23:32 53.44820 -3.35508 21964 ft 425 kts 113°
2026-05-04 23:32 53.43663 -3.30954 21720 ft 424 kts 113°
2026-05-04 23:32 53.42517 -3.26453 21462 ft 413 kts 113°
2026-05-04 23:32 53.41549 -3.22018 21262 ft 398 kts 105°
2026-05-04 23:33 53.41068 -3.17549 21134 ft 382 kts 95°
2026-05-04 23:33 53.41053 -3.13188 21009 ft 367 kts 85°
2026-05-04 23:33 53.41456 -3.09052 20969 ft 351 kts 76°
2026-05-04 23:33 53.42205 -3.05155 20368 ft 353 kts 67°
2026-05-04 23:34 53.43333 -3.01474 19722 ft 357 kts 59°
2026-05-04 23:34 53.44601 -2.97860 19058 ft 360 kts 59°
2026-05-04 23:34 53.45869 -2.94228 18408 ft 358 kts 59°
2026-05-04 23:34 53.47102 -2.90665 17754 ft 348 kts 60°
2026-05-04 23:35 53.48299 -2.87190 17105 ft 340 kts 60°
2026-05-04 23:35 53.49469 -2.83795 16447 ft 332 kts 60°
2026-05-04 23:35 53.50617 -2.80470 15798 ft 326 kts 60°
2026-05-04 23:35 53.51727 -2.77240 15161 ft 321 kts 60°
2026-05-04 23:36 53.52835 -2.74009 14496 ft 317 kts 60°
2026-05-04 23:36 53.53931 -2.70813 13855 ft 313 kts 60°
2026-05-04 23:36 53.55009 -2.67665 13212 ft 309 kts 60°
2026-05-04 23:36 53.56074 -2.64548 12550 ft 305 kts 60°
2026-05-04 23:37 53.57125 -2.61461 11907 ft 302 kts 60°
2026-05-04 23:37 53.58164 -2.58411 11242 ft 299 kts 60°
2026-05-04 23:37 53.59190 -2.55394 10595 ft 295 kts 60°
2026-05-04 23:37 53.60199 -2.52425 10107 ft 287 kts 60°
2026-05-04 23:38 53.61179 -2.49533 9810 ft 281 kts 60°
2026-05-04 23:38 53.62148 -2.46675 9686 ft 281 kts 60°
2026-05-04 23:38 53.63118 -2.43814 9558 ft 280 kts 60°
2026-05-04 23:38 53.64085 -2.40963 9436 ft 280 kts 60°
2026-05-04 23:39 53.65048 -2.38116 9314 ft 279 kts 60°
2026-05-04 23:39 53.66009 -2.35265 9185 ft 279 kts 60°
2026-05-04 23:39 53.66955 -2.32458 9061 ft 279 kts 60°
2026-05-04 23:39 53.67912 -2.29620 8936 ft 278 kts 60°
2026-05-04 23:40 53.68866 -2.26785 8808 ft 278 kts 60°
2026-05-04 23:40 53.69817 -2.23951 8687 ft 277 kts 60°
2026-05-04 23:40 53.70768 -2.21117 8553 ft 277 kts 60°
2026-05-04 23:40 53.71715 -2.18287 8462 ft 276 kts 60°
2026-05-04 23:41 53.72660 -2.15457 8240 ft 276 kts 60°
2026-05-04 23:41 53.73601 -2.12641 7990 ft 274 kts 60°
2026-05-04 23:41 53.74531 -2.09828 7739 ft 274 kts 62°
2026-05-04 23:41 53.75376 -2.06948 7488 ft 273 kts 65°
2026-05-04 23:42 53.76166 -2.04041 7245 ft 272 kts 66°
2026-05-04 23:42 53.76936 -2.01127 6931 ft 271 kts 66°
2026-05-04 23:42 53.77699 -1.98232 6546 ft 269 kts 66°
2026-05-04 23:42 53.78461 -1.95347 6161 ft 268 kts 66°
2026-05-04 23:43 53.79220 -1.92488 5769 ft 264 kts 66°
2026-05-04 23:43 53.79958 -1.89729 5386 ft 251 kts 65°
2026-05-04 23:43 53.80662 -1.87103 5035 ft 239 kts 65°
2026-05-04 23:43 53.81327 -1.84624 4708 ft 229 kts 65°
2026-05-04 23:44 53.81956 -1.82277 4629 ft 210 kts 65°
2026-05-04 23:44 53.82541 -1.80096 4551 ft 199 kts 65°
2026-05-04 23:44 53.83107 -1.77979 4461 ft 196 kts 65°
2026-05-04 23:44 53.83668 -1.75876 4368 ft 196 kts 65°
2026-05-04 23:45 53.84230 -1.73782 4292 ft 195 kts 63°
2026-05-04 23:45 53.85014 -1.71918 4196 ft 194 kts 50°
2026-05-04 23:45 53.85736 -1.69989 4052 ft 194 kts 69°
2026-05-04 23:45 53.86129 -1.67802 3926 ft 194 kts 78°
2026-05-04 23:46 53.86091 -1.65552 3761 ft 193 kts 116°
2026-05-04 23:46 53.85176 -1.63951 3569 ft 192 kts 146°
2026-05-04 23:46 53.84043 -1.62745 3527 ft 193 kts 156°
2026-05-04 23:46 53.82736 -1.62488 3522 ft 192 kts 188°
2026-05-04 23:47 53.81452 -1.63124 3553 ft 194 kts 201°
2026-05-04 23:47 53.80138 -1.63451 3407 ft 193 kts 163°
2026-05-04 23:47 53.78992 -1.62387 3273 ft 191 kts 142°
2026-05-04 23:47 53.77965 -1.60968 3217 ft 189 kts 140°
2026-05-04 23:48 53.76964 -1.59557 3185 ft 187 kts 141°
2026-05-04 23:48 53.75951 -1.58192 3135 ft 186 kts 142°
2026-05-04 23:48 53.74924 -1.56875 3049 ft 185 kts 143°
2026-05-04 23:48 53.73889 -1.55599 2968 ft 182 kts 144°
2026-05-04 23:49 53.72886 -1.54398 2942 ft 172 kts 145°
2026-05-04 23:49 53.71925 -1.53271 2954 ft 167 kts 145°
2026-05-04 23:49 53.70979 -1.52138 2964 ft 166 kts 137°
2026-05-04 23:49 53.70352 -1.50537 2966 ft 165 kts 107°
2026-05-04 23:50 53.70265 -1.48628 2966 ft 165 kts 78°
2026-05-04 23:50 53.70737 -1.46895 2967 ft 164 kts 48°
2026-05-04 23:50 53.71659 -1.45793 2962 ft 164 kts 18°
2026-05-04 23:50 53.72785 -1.45631 2961 ft 164 kts 347°
2026-05-04 23:51 53.73796 -1.46476 2967 ft 164 kts 318°
2026-05-04 23:51 53.74644 -1.47772 2958 ft 165 kts 317°
2026-05-04 23:51 53.75495 -1.49072 2958 ft 165 kts 317°
2026-05-04 23:51 53.76342 -1.50367 2998 ft 164 kts 317°
2026-05-04 23:52 53.77191 -1.51662 2933 ft 162 kts 317°
2026-05-04 23:52 53.78001 -1.52899 2762 ft 156 kts 317°
2026-05-04 23:52 53.78800 -1.54120 2569 ft 153 kts 317°
2026-05-04 23:52 53.79585 -1.55319 2376 ft 151 kts 317°
2026-05-04 23:53 53.80358 -1.56502 2181 ft 149 kts 317°
2026-05-04 23:53 53.81124 -1.57674 1983 ft 148 kts 317°
2026-05-04 23:53 53.81879 -1.58829 1788 ft 145 kts 317°
2026-05-04 23:53 53.82625 -1.59972 1603 ft 144 kts 317°
2026-05-04 23:54 53.83367 -1.61110 1409 ft 143 kts 317°
2026-05-04 23:54 53.84105 -1.62240 1220 ft 142 kts 317°
2026-05-04 23:54 53.84837 -1.63364 1031 ft 142 kts 317°
2026-05-04 23:54 53.85567 -1.64484 836 ft 141 kts 317°
2026-05-04 23:55 53.86295 -1.65598 679 ft 138 kts 317°
2026-05-04 23:55 53.86857 -1.66482 670 ft 59 kts 317°
2026-05-04 23:55 53.87184 -1.66973 685 ft 26 kts 331°
2026-05-04 23:56 53.87359 -1.67004 687 ft 25 kts 342°
2026-05-04 23:56 53.87335 -1.67168 690 ft 19 kts 174°
2026-05-04 23:56 53.87218 -1.67025 681 ft 22 kts 137°
2026-05-04 23:56 53.87094 -1.66835 681 ft 27 kts 137°
2026-05-04 23:57 53.86980 -1.66660 673 ft 15 kts 136°
2026-05-04 23:57 53.86993 -1.66495 673 ft 15 kts 72°
2026-05-04 23:57 53.86980 -1.66380 669 ft 3 kts 111°
2026-05-04 23:57 53.86966 -1.66332 670 ft 6 kts 118°
2026-05-04 23:58 53.86929 -1.66251 666 ft 10 kts 135°
2026-05-04 23:58 53.86879 -1.66181 666 ft 8 kts 140°
2026-05-04 23:58 53.86840 -1.66122 667 ft 7 kts 136°
2026-05-04 23:58 53.86818 -1.66058 666 ft 6 kts 104°
2026-05-04 23:59 53.86814 -1.65957 666 ft 10 kts 91°
2026-05-04 23:59 53.86812 -1.65841 665 ft 9 kts 91°
2026-05-04 23:59 53.86816 -1.65737 665 ft 8 kts 87°
2026-05-04 23:59 53.86846 -1.65691 665 ft 4 kts 12°
2026-05-05 00:00 53.86851 -1.65690 665 ft 0 kts
2026-05-05 00:00 53.86852 -1.65690 665 ft 1 kts
2026-05-05 00:00 53.86868 -1.65690 665 ft 1 kts
2026-05-05 00:00 53.86873 -1.65690 665 ft 0 kts
2026-05-05 00:01 53.86877 -1.65690 665 ft 0 kts
2026-05-05 00:01 53.86879 -1.65690 665 ft 0 kts
2026-05-05 00:01 53.86881 -1.65690 665 ft 1 kts
2026-05-05 00:01 53.86882 -1.65690 665 ft 0 kts